Find Starlink 35167

NORAD ID: 65736 Int'l Des: 2025-216 Owner: SPXS Country: US Constellation: starlink operational
LEOCIRCULAR

現在のビュー

3D地球を読み込み中...

About Starlink 35167

Starlink 35167 (NORAD 65736) is a starlink constellation satellite (v2 mini) launched Sep 25, 2025 by SPXS of US. It operates in LEO, CIRCULAR orbit with a mass of 575.00 kg.

Starlink 35167について

説明を読み込み中...

次回通過

Passes for default location (London). Set your location on the main map for personalized predictions.

高度履歴

Loading altitude history...

軌道要素

1 65736U 25216C 26195.44952686 .00016603 00000-0 50136-3 0 9994
2 65736 53.1597 103.9284 0001304 105.3555 254.7592 15.34404904 45959
Epoch: Jul 14, 2026 • Age: 5 hours

現在のステータス

高度 467.8 km
遠地点 / 近地点 N/A
速度 7.63 km/s
衛星直下点 -16.84°S, 73.31°W
打ち上げ日 Sep 25, 2025
運用期間 0.7 years
タイプ internet

技術仕様

分類 Payload
質量 575.00 kg
乾燥質量 530.00 kg
総質量 575.00 kg
長さ 0.30 m
直径 4.10 m
スパン 29.00 m
形状 Box + pan
製造者 SPXS
バスタイプ Starlink V2MO
フェーズステータス In Orbit
所有者/国 SPXS/US

Most Searched